Weather reports worldwide

Advertisment
Ustica, Italy (16400): temperature & dewpoint: 17.10.2019 05:00:00 - 23.10.2019 05:00:00 (CEST)Ustica, Italy (16400): wind speed: 17.10.2019 05:00:00 - 23.10.2019 05:00:00 (CEST)Ustica, Italy (16400): wind direction: 17.10.2019 05:00:00 - 23.10.2019 05:00:00 (CEST)Ustica, Italy (16400): reduced air pressure: 17.10.2019 05:00:00 - 23.10.2019 05:00:00 (CEST)Ustica, Italy (16400): visibility: 17.10.2019 05:00:00 - 23.10.2019 05:00:00 (CEST)Ustica, Italy (16400): sunshine duration: 17.10.2019 05:00:00 - 23.10.2019 05:00:00 (CEST)
Date & Time tt [°C] td [°C] ff [km/h] ff [kn] dd ppp [hPa] vv [km] sd [min]
23.10.2019 05:00:00 - - - - - - - -
23.10.2019 04:00:00 - - - - - - - -
23.10.2019 03:00:00 - - - - - - - -
23.10.2019 02:00:00 - - - - - - - -
23.10.2019 01:00:00 - - - - - - - -
23.10.2019 00:00:00 - - - - - - - -
22.10.2019 23:00:00 - - - - - - - -
22.10.2019 22:00:00 - - - - - - - -
22.10.2019 21:00:00 - - - - - - - -
22.10.2019 20:00:00 21,0 18,8 18 10 SE 1019,8 20 0
22.10.2019 19:00:00 21,8 19,4 15 8 ESE 1019,2 20 0
22.10.2019 18:00:00 - - - - - - - -
22.10.2019 17:00:00 23,0 20,0 15 8 ESE 1019,7 20 60
22.10.2019 16:00:00 23,6 20,3 16 9 ESE 1019,6 20 60
22.10.2019 15:00:00 24,2 20,9 16 9 ESE 1020,1 20 60
22.10.2019 14:00:00 24,8 20,7 15 8 E 1020,3 20 60
22.10.2019 13:00:00 24,2 20,9 15 8 E 1020,8 20 42
22.10.2019 12:00:00 23,4 19,4 11 6 E 1021,6 20 36
22.10.2019 11:00:00 23,0 19,2 8 4 E 1021,7 20 60
22.10.2019 10:00:00 20,8 17,2 5 3 NE 1021,5 20 48
22.10.2019 09:00:00 20,2 16,9 4 2 NE 1021,2 20 30
22.10.2019 08:00:00 20,0 16,4 4 2 NE 1020,9 20 36
22.10.2019 07:00:00 - - - - - - - -
22.10.2019 06:00:00 - - - - - - - -
22.10.2019 05:00:00 - - - - - - - -
22.10.2019 04:00:00 - - - - - - - -
22.10.2019 03:00:00 - - - - - - - -
22.10.2019 02:00:00 - - - - - - - -
22.10.2019 01:00:00 - - - - - - - -
22.10.2019 00:00:00 - - - - - - - -
21.10.2019 23:00:00 - - - - - - - -
21.10.2019 22:00:00 - - - - - - - -
21.10.2019 21:00:00 - - - - - - - -
21.10.2019 20:00:00 23,4 20,7 16 9 E 1022,2 25 0
21.10.2019 19:00:00 24,4 20,5 11 6 E 1022,4 25 0
21.10.2019 18:00:00 25,2 20,9 8 4 NE 1022,0 25 60
21.10.2019 17:00:00 26,0 20,6 4 2 N 1023,1 20 60
21.10.2019 16:00:00 26,4 19,8 5 3 N 1022,7 25 60
21.10.2019 15:00:00 26,0 18,7 4 2 N 1022,7 25 60
21.10.2019 14:00:00 25,6 21,3 8 4 S 1023,2 25 60
21.10.2019 13:00:00 25,6 21,7 13 7 S 1022,9 25 60
21.10.2019 12:00:00 25,2 21,1 21 11 S 1022,9 25 60
21.10.2019 11:00:00 25,0 21,1 18 10 SSE 1022,7 25 60
21.10.2019 10:00:00 24,2 19,9 21 11 SE 1021,7 25 60
21.10.2019 09:00:00 23,8 20,5 18 10 SSE 1021,1 25 60
21.10.2019 08:00:00 23,0 19,0 13 7 SE 1021,0 20 -
21.10.2019 07:00:00 - - - - - - - -
21.10.2019 06:00:00 - - - - - - - -
21.10.2019 05:00:00 - - - - - - - -
21.10.2019 04:00:00 - - - - - - - -
21.10.2019 03:00:00 - - - - - - - -
21.10.2019 02:00:00 - - - - - - - -
21.10.2019 01:00:00 - - - - - - - -
21.10.2019 00:00:00 - - - - - - - -
20.10.2019 23:00:00 - - - - - - - -
20.10.2019 22:00:00 - - - - - - - -
20.10.2019 21:00:00 - - - - - - - -
20.10.2019 20:00:00 23,6 21,5 22 12 SE 1019,2 25 0
20.10.2019 19:00:00 24,4 22,3 22 12 SE 1019,0 25 12
20.10.2019 18:00:00 25,0 21,5 21 11 SE 1019,2 25 60
20.10.2019 17:00:00 25,8 22,5 22 12 SE 1019,5 25 60
20.10.2019 16:00:00 26,4 21,0 22 12 SE 1019,9 25 60
20.10.2019 15:00:00 26,2 22,1 24 13 SE 1020,0 25 60
20.10.2019 14:00:00 26,2 21,4 18 10 SE 1019,7 25 60
20.10.2019 13:00:00 26,0 21,2 15 8 SE 1019,7 25 60
20.10.2019 12:00:00 25,4 20,0 11 6 SE 1020,2 25 60
20.10.2019 11:00:00 24,6 20,7 8 4 SE 1020,2 25 60
20.10.2019 10:00:00 24,4 20,1 4 2 ESE 1020,0 25 60
20.10.2019 09:00:00 23,0 19,9 5 3 ENE 1019,9 25 60
20.10.2019 08:00:00 20,6 17,6 5 3 SSE 1019,3 20 -
20.10.2019 07:00:00 - - - - - - - -
20.10.2019 06:00:00 - - - - - - - -
20.10.2019 05:00:00 - - - - - - - -
20.10.2019 04:00:00 - - - - - - - -
20.10.2019 03:00:00 - - - - - - - -
20.10.2019 02:00:00 - - - - - - - -
20.10.2019 01:00:00 - - - - - - - -
20.10.2019 00:00:00 - - - - - - - -
19.10.2019 23:00:00 - - - - - - - -
19.10.2019 22:00:00 - - - - - - - -
19.10.2019 21:00:00 - - - - - - - -
19.10.2019 20:00:00 20,0 17,3 13 7 SE 1018,5 16 -
19.10.2019 19:00:00 19,4 16,4 8 4 SE 1018,3 16 -
19.10.2019 18:00:00 20,8 16,9 5 3 ESE 1017,9 25 30
19.10.2019 17:00:00 22,4 17,4 4 2 ESE 1017,8 25 60
19.10.2019 16:00:00 23,6 17,1 4 2 E 1017,9 25 60
19.10.2019 15:00:00 24,8 18,4 5 3 N 1017,7 20 60
19.10.2019 14:00:00 23,6 17,7 4 2 S 1018,1 25 60
19.10.2019 13:00:00 22,8 18,1 5 3 SSW 1018,6 25 60
19.10.2019 12:00:00 22,6 18,5 9 5 SSW 1018,6 25 60
19.10.2019 11:00:00 22,2 17,5 9 5 S 1018,3 20 60
19.10.2019 10:00:00 - - - - - - - -
19.10.2019 09:00:00 - - - - - - - -
19.10.2019 08:00:00 - - - - - - - -
19.10.2019 07:00:00 - - - - - - - -
19.10.2019 06:00:00 - - - - - - - -
19.10.2019 05:00:00 - - - - - - - -
19.10.2019 04:00:00 - - - - - - - -
19.10.2019 03:00:00 - - - - - - - -
19.10.2019 02:00:00 - - - - - - - -
19.10.2019 01:00:00 - - - - - - - -
19.10.2019 00:00:00 - - - - - - - -
18.10.2019 23:00:00 - - - - - - - -
18.10.2019 22:00:00 - - - - - - - -
18.10.2019 21:00:00 - - - - - - - -
18.10.2019 20:00:00 - - - - - - - -
18.10.2019 19:00:00 - - - - - - - -
18.10.2019 18:00:00 - - - - - - - -
18.10.2019 17:00:00 - - - - - - - -
18.10.2019 16:00:00 - - - - - - - -
18.10.2019 15:00:00 - - - - - - - -
18.10.2019 14:00:00 24,8 17,4 0 0 N 1018,4 20 60
18.10.2019 13:00:00 - - - - - - - -
18.10.2019 12:00:00 23,8 17,0 4 2 N 1019,3 25 60
18.10.2019 11:00:00 22,8 22,8 5 3 NNE 1019,8 25 60
18.10.2019 10:00:00 22,8 17,1 4 2 N 1019,3 25 60
18.10.2019 09:00:00 21,1 17,1 4 2 N 1019,4 25 60
18.10.2019 08:00:00 17,6 15,4 0 0 N 1019,7 25 -
18.10.2019 07:00:00 - - - - - - - -
18.10.2019 06:00:00 - - - - - - - -
18.10.2019 05:00:00 - - - - - - - -
18.10.2019 04:00:00 - - - - - - - -
18.10.2019 03:00:00 - - - - - - - -
18.10.2019 02:00:00 - - - - - - - -
18.10.2019 01:00:00 - - - - - - - -
18.10.2019 00:00:00 - - - - - - - -
17.10.2019 23:00:00 - - - - - - - -
17.10.2019 22:00:00 - - - - - - - -
17.10.2019 21:00:00 - - - - - - - -
17.10.2019 20:00:00 19,8 16,8 0 0 N 1020,2 16 -
17.10.2019 19:00:00 19,4 15,7 0 0 N 1020,2 16 -
17.10.2019 18:00:00 21,2 16,4 0 0 N 1020,1 20 -
17.10.2019 17:00:00 22,4 16,4 0 0 N 1020,3 25 60
17.10.2019 16:00:00 22,4 15,4 0 0 N 1020,3 25 60
17.10.2019 15:00:00 23,8 15,6 0 0 N 1020,3 25 60
17.10.2019 14:00:00 23,8 16,3 0 0 N 1020,5 25 60
17.10.2019 13:00:00 22,8 15,5 0 0 N 1020,9 25 60
17.10.2019 12:00:00 23,8 16,3 0 0 N 1020,5 25 60
17.10.2019 11:00:00 21,8 15,2 0 0 N 1021,2 25 60
17.10.2019 10:00:00 22,2 17,4 0 0 N 1020,3 25 60
17.10.2019 09:00:00 20,8 16,9 0 0 N 1021,0 25 60
17.10.2019 08:00:00 18,4 14,3 0 0 N 1020,5 30 12
17.10.2019 07:00:00 - - - - - - - -
17.10.2019 06:00:00 - - - - - - - -
17.10.2019 05:00:00 - - - - - - - -

tt = temperature
td = dewpoint
ff = wind speed
dd = wind direction
ppp = reduced air pressure
vv = visibility
sd = sunshine duration

Next stations